[Date Prev][Date Next][Thread Prev][Thread Next] - [Date Index][Thread Index][Author Index]
2 Line ISS Keps 4-25
- Subject: [sarex] 2 Line ISS Keps 4-25
- From: "Dave Larsen PhD" <doc@xxxxxxxxxxx>
- Date: Mon, 25 Apr 2005 04:09:39 -0700
ISS
1 25544U 98067A 05115.29328444 .00009874 00000-0 79934-4 0 3244
2 25544 051.6414 171.7092 0007448 045.7555 042.1759 15.71519136367366
----
Via the sarex mailing list at AMSAT.ORG courtesy of AMSAT-NA.
To unsubscribe, send "unsubscribe sarex" to Majordomo@amsat.org
AMSAT Home